EWG8761 LSZH-EDDB

Flight info

Callsign EWG8761
Flight time 1h 20m
Altitude 34000
Route DEGES Z1 ETAGO DCT TIKNI/N0454F350 T279 TAMEB T278 KLF KLF1R
Aircraft A320/M-SDE3FGHIRWY/LB1

Departure

Time 2026-04-30 20:26
Airport Zürich Airport (LSZH)

Arrival

Time 2026-04-30 21:46
Airport Berlin Brandenburg Airport (EDDB)
Time Latitude Longitude Altitude Speed Heading
2026-04-30 19:33 47.45354 8.55702 1409 ft 0 kts
2026-04-30 20:12 47.45344 8.55700 1413 ft 4 kts
2026-04-30 20:13 47.45317 8.55698 1406 ft 4 kts 357°
2026-04-30 20:13 47.45291 8.55703 1406 ft 4 kts 343°
2026-04-30 20:13 47.45269 8.55719 1408 ft 4 kts 301°
2026-04-30 20:13 47.45264 8.55732 1406 ft 0 kts 276°
2026-04-30 20:19 47.45266 8.55710 1409 ft 9 kts 276°
2026-04-30 20:19 47.45286 8.55579 1407 ft 8 kts 319°
2026-04-30 20:19 47.45333 8.55539 1412 ft 10 kts 335°
2026-04-30 20:20 47.45411 8.55486 1406 ft 16 kts 335°
2026-04-30 20:20 47.45512 8.55447 1403 ft 15 kts 32°
2026-04-30 20:20 47.45519 8.55595 1407 ft 16 kts 97°
2026-04-30 20:20 47.45506 8.55771 1410 ft 18 kts 96°
2026-04-30 20:21 47.45583 8.55848 1409 ft 15 kts
2026-04-30 20:21 47.45667 8.55860 1408 ft 12 kts
2026-04-30 20:21 47.45752 8.55874 1412 ft 12 kts
2026-04-30 20:21 47.45834 8.55911 1413 ft 13 kts 49°
2026-04-30 20:22 47.45837 8.56038 1411 ft 13 kts 95°
2026-04-30 20:22 47.45827 8.56169 1415 ft 14 kts 96°
2026-04-30 20:22 47.45852 8.56294 1417 ft 14 kts 26°
2026-04-30 20:22 47.45956 8.56316 1412 ft 12 kts
2026-04-30 20:23 47.46025 8.56326 1414 ft 11 kts
2026-04-30 20:23 47.46105 8.56337 1410 ft 13 kts
2026-04-30 20:23 47.46191 8.56352 1412 ft 11 kts 352°
2026-04-30 20:23 47.46215 8.56330 1410 ft 0 kts 317°
2026-04-30 20:24 47.46218 8.56326 1410 ft 4 kts 317°
2026-04-30 20:25 47.46922 8.55369 1389 ft 133 kts 317°
2026-04-30 20:25 47.47725 8.54279 1469 ft 171 kts 318°
2026-04-30 20:26 47.49493 8.51988 2806 ft 174 kts 334°
2026-04-30 20:26 47.51826 8.50031 3380 ft 216 kts 334°
2026-04-30 20:26 47.52948 8.48392 3782 ft 238 kts 306°
2026-04-30 20:27 47.53348 8.43604 5312 ft 242 kts 250°
2026-04-30 20:27 47.51939 8.39103 6833 ft 242 kts 237°
2026-04-30 20:28 47.49121 8.37026 8182 ft 237 kts 169°
2026-04-30 20:28 47.46686 8.39966 9622 ft 238 kts 117°
2026-04-30 20:29 47.45697 8.44643 10825 ft 253 kts 89°
2026-04-30 20:30 47.45728 8.53470 11521 ft 322 kts 89°
2026-04-30 20:30 47.45997 8.64289 12492 ft 368 kts 85°
2026-04-30 20:31 47.46484 8.75764 14480 ft 377 kts 85°
2026-04-30 20:32 47.46001 8.87344 16246 ft 385 kts 100°
2026-04-30 20:32 47.44848 8.95120 17345 ft 391 kts 99°
2026-04-30 20:33 47.44282 8.99061 17896 ft 393 kts 99°
2026-04-30 20:33 47.43149 9.07024 18898 ft 399 kts 99°
2026-04-30 20:33 47.42573 9.11045 19345 ft 402 kts 99°
2026-04-30 20:34 47.42219 9.19229 20221 ft 402 kts 81°
2026-04-30 20:34 47.43877 9.26986 21097 ft 401 kts 60°
2026-04-30 20:35 47.45276 9.30568 21522 ft 403 kts 59°
2026-04-30 20:35 47.46712 9.34142 21947 ft 405 kts 55°
2026-04-30 20:35 47.50625 9.40132 22767 ft 409 kts 35°
2026-04-30 20:36 47.53102 9.42237 23157 ft 413 kts 25°
2026-04-30 20:36 47.55805 9.43702 23531 ft 416 kts 19°
2026-04-30 20:36 47.61474 9.45295 24259 ft 423 kts
2026-04-30 20:37 47.64424 9.45438 24580 ft 425 kts
2026-04-30 20:37 47.67379 9.45588 24907 ft 427 kts
2026-04-30 20:37 47.70353 9.45746 25220 ft 428 kts
2026-04-30 20:37 47.73339 9.45910 25525 ft 430 kts
2026-04-30 20:38 47.76334 9.46076 25828 ft 432 kts
2026-04-30 20:38 47.79341 9.46243 26128 ft 433 kts
2026-04-30 20:38 47.82355 9.46367 26406 ft 435 kts
2026-04-30 20:39 47.88403 9.46373 26955 ft 439 kts
2026-04-30 20:39 47.91467 9.46319 27229 ft 441 kts
2026-04-30 20:39 47.94534 9.46264 27581 ft 441 kts
2026-04-30 20:40 48.00647 9.46201 28425 ft 438 kts
2026-04-30 20:40 48.03688 9.46194 28834 ft 436 kts
2026-04-30 20:40 48.06720 9.46194 29253 ft 435 kts
2026-04-30 20:41 48.12749 9.46199 30087 ft 432 kts
2026-04-30 20:41 48.15712 9.46198 30480 ft 431 kts
2026-04-30 20:41 48.18705 9.46194 30844 ft 429 kts
2026-04-30 20:41 48.21689 9.46192 31196 ft 428 kts
2026-04-30 20:42 48.24663 9.46192 31548 ft 427 kts
2026-04-30 20:42 48.27627 9.46194 31841 ft 426 kts
2026-04-30 20:42 48.33571 9.46204 32408 ft 427 kts
2026-04-30 20:43 48.36537 9.46205 32746 ft 426 kts
2026-04-30 20:43 48.39502 9.46209 33088 ft 425 kts
2026-04-30 20:43 48.42410 9.46212 33437 ft 424 kts
2026-04-30 20:44 48.48286 9.46213 34140 ft 421 kts
2026-04-30 20:44 48.51218 9.46217 34307 ft 422 kts
2026-04-30 20:45 48.62025 9.46138 34328 ft 425 kts
2026-04-30 20:45 48.68909 9.46042 34333 ft 425 kts
2026-04-30 20:46 48.79605 9.47616 34332 ft 422 kts 12°
2026-04-30 20:47 48.88305 9.49698 34340 ft 422 kts 12°
2026-04-30 20:48 48.96999 9.51777 34339 ft 422 kts 11°
2026-04-30 20:48 49.02761 9.53157 34344 ft 422 kts 11°
2026-04-30 20:49 49.08556 9.54548 34346 ft 422 kts 11°
2026-04-30 20:50 49.17248 9.56641 34343 ft 422 kts 11°
2026-04-30 20:50 49.23039 9.58040 34336 ft 422 kts 11°
2026-04-30 20:51 49.28797 9.59443 34335 ft 422 kts 11°
2026-04-30 20:51 49.37500 9.61563 34334 ft 422 kts 11°
2026-04-30 20:52 49.43310 9.62979 34340 ft 423 kts 11°
2026-04-30 20:53 49.52031 9.65116 34348 ft 423 kts 11°
2026-04-30 20:53 49.57808 9.66533 34341 ft 423 kts 11°
2026-04-30 20:54 49.66544 9.68686 34353 ft 424 kts 11°
2026-04-30 20:55 49.75250 9.70834 34366 ft 424 kts 11°
2026-04-30 20:55 49.81085 9.72283 34369 ft 425 kts 11°
2026-04-30 20:56 49.89838 9.74460 34377 ft 425 kts 11°
2026-04-30 20:57 49.98550 9.76621 34384 ft 424 kts 11°
2026-04-30 20:57 50.04385 9.78080 34387 ft 424 kts 11°
2026-04-30 20:58 50.13118 9.80287 34396 ft 424 kts 11°
2026-04-30 20:58 50.18939 9.81761 34400 ft 424 kts 11°
2026-04-30 20:59 50.27634 9.83950 34390 ft 424 kts 11°
2026-04-30 21:00 50.39172 9.87621 34404 ft 422 kts 24°
2026-04-30 21:01 50.44077 9.92538 34400 ft 420 kts 43°
2026-04-30 21:01 50.46120 9.95826 34393 ft 421 kts 46°
2026-04-30 21:02 50.52119 10.05840 34393 ft 422 kts 46°
2026-04-30 21:02 50.56156 10.12566 34404 ft 423 kts 46°
2026-04-30 21:03 50.60190 10.19308 34404 ft 424 kts 46°
2026-04-30 21:03 50.64189 10.26049 34407 ft 424 kts 49°
2026-04-30 21:04 50.67395 10.33853 34444 ft 426 kts 60°
2026-04-30 21:04 50.71619 10.46155 34446 ft 425 kts 59°
2026-04-30 21:05 50.74425 10.54341 34446 ft 424 kts 60°
2026-04-30 21:05 50.77207 10.62489 34445 ft 424 kts 59°
2026-04-30 21:06 50.80002 10.70698 34444 ft 424 kts 60°
2026-04-30 21:06 50.82790 10.78914 34443 ft 424 kts 60°
2026-04-30 21:07 50.85572 10.87138 34457 ft 424 kts 60°
2026-04-30 21:07 50.88325 10.95306 34456 ft 423 kts 60°
2026-04-30 21:08 50.91080 11.03530 34453 ft 422 kts 60°
2026-04-30 21:08 50.93826 11.11753 34449 ft 422 kts 60°
2026-04-30 21:09 50.96570 11.19971 34446 ft 422 kts 60°
2026-04-30 21:09 50.99289 11.28145 34446 ft 421 kts 60°
2026-04-30 21:10 51.02019 11.36369 34437 ft 421 kts 60°
2026-04-30 21:10 51.04746 11.44620 34460 ft 421 kts 60°
2026-04-30 21:11 51.07461 11.52864 34464 ft 420 kts 60°
2026-04-30 21:11 51.10159 11.61090 34457 ft 419 kts 60°
2026-04-30 21:12 51.12824 11.69263 34451 ft 419 kts 60°
2026-04-30 21:12 51.15501 11.77496 34443 ft 418 kts 60°
2026-04-30 21:13 51.18174 11.85735 34434 ft 418 kts 60°
2026-04-30 21:13 51.20940 11.93880 34421 ft 417 kts 54°
2026-04-30 21:14 51.24698 12.00785 34441 ft 415 kts 45°
2026-04-30 21:14 51.28683 12.07449 34442 ft 414 kts 45°
2026-04-30 21:15 51.32644 12.14122 34442 ft 414 kts 45°
2026-04-30 21:15 51.36596 12.20817 34435 ft 414 kts 45°
2026-04-30 21:16 51.40518 12.27469 34411 ft 413 kts 45°
2026-04-30 21:16 51.44467 12.34163 34422 ft 414 kts 45°
2026-04-30 21:17 51.48413 12.40883 34413 ft 414 kts 45°
2026-04-30 21:17 51.52354 12.47622 34417 ft 414 kts 45°
2026-04-30 21:18 51.56258 12.54319 34410 ft 414 kts 45°
2026-04-30 21:18 51.60194 12.61078 34389 ft 412 kts 45°
2026-04-30 21:19 51.62124 12.64402 34290 ft 399 kts 45°
2026-04-30 21:19 51.63985 12.67613 34113 ft 386 kts 45°
2026-04-30 21:19 51.65795 12.70736 33746 ft 379 kts 45°
2026-04-30 21:19 51.67579 12.73815 33286 ft 374 kts 45°
2026-04-30 21:20 51.69320 12.76825 32819 ft 370 kts 45°
2026-04-30 21:20 51.71067 12.79847 32344 ft 366 kts 45°
2026-04-30 21:20 51.72795 12.82843 31874 ft 363 kts 45°
2026-04-30 21:20 51.74505 12.85813 31399 ft 360 kts 46°
2026-04-30 21:21 51.76202 12.88761 30947 ft 357 kts 46°
2026-04-30 21:21 51.77820 12.91743 30322 ft 352 kts 51°
2026-04-30 21:21 51.80390 12.98374 28637 ft 344 kts 56°
2026-04-30 21:22 51.81604 13.01627 27834 ft 341 kts 56°
2026-04-30 21:22 51.85220 13.11293 25596 ft 329 kts 56°
2026-04-30 21:23 51.86395 13.14439 24898 ft 325 kts 57°
2026-04-30 21:23 51.87557 13.17547 24216 ft 321 kts 57°
2026-04-30 21:23 51.89739 13.23388 22786 ft 314 kts 57°
2026-04-30 21:24 51.90860 13.26397 22087 ft 310 kts 57°
2026-04-30 21:24 51.91951 13.29331 21445 ft 306 kts 57°
2026-04-30 21:24 51.93037 13.32255 20793 ft 301 kts 57°
2026-04-30 21:24 51.94112 13.35151 20142 ft 298 kts 57°
2026-04-30 21:25 51.96219 13.40837 18900 ft 291 kts 57°
2026-04-30 21:25 51.97256 13.43641 18232 ft 288 kts 57°
2026-04-30 21:25 51.98291 13.46407 17545 ft 285 kts 54°
2026-04-30 21:26 52.01472 13.49895 16240 ft 286 kts 14°
2026-04-30 21:26 52.03449 13.49870 15599 ft 295 kts 353°
2026-04-30 21:27 52.06849 13.45973 14386 ft 313 kts 315°
2026-04-30 21:27 52.08149 13.43253 14249 ft 296 kts 313°
2026-04-30 21:27 52.09347 13.40615 13931 ft 286 kts 313°
2026-04-30 21:28 52.11667 13.35478 12948 ft 279 kts 313°
2026-04-30 21:28 52.12822 13.32955 12447 ft 277 kts 313°
2026-04-30 21:28 52.15093 13.28011 11470 ft 272 kts 313°
2026-04-30 21:29 52.16225 13.25557 11035 ft 272 kts 313°
2026-04-30 21:29 52.18344 13.17245 9747 ft 279 kts 265°
2026-04-30 21:30 52.17086 13.11266 8939 ft 279 kts 249°
2026-04-30 21:31 52.14966 13.02636 8026 ft 271 kts 249°
2026-04-30 21:31 52.13595 12.96997 7301 ft 264 kts 249°
2026-04-30 21:32 52.12252 12.91489 6685 ft 258 kts 249°
2026-04-30 21:32 52.11594 12.88798 6550 ft 254 kts 249°
2026-04-30 21:32 52.10942 12.86132 6419 ft 253 kts 249°
2026-04-30 21:32 52.10291 12.83470 6291 ft 253 kts 249°
2026-04-30 21:33 52.09651 12.80853 6160 ft 252 kts 249°
2026-04-30 21:33 52.08362 12.75594 6005 ft 248 kts 248°
2026-04-30 21:33 52.07805 12.72939 6243 ft 250 kts 263°
2026-04-30 21:34 52.07981 12.70170 6403 ft 248 kts 295°
2026-04-30 21:34 52.10436 12.66718 6443 ft 237 kts 342°
2026-04-30 21:34 52.11976 12.65739 6437 ft 237 kts 343°
2026-04-30 21:35 52.13557 12.65288 6434 ft 233 kts
2026-04-30 21:35 52.15121 12.65789 6438 ft 229 kts 24°
2026-04-30 21:35 52.16466 12.67137 6438 ft 227 kts 42°
2026-04-30 21:35 52.17491 12.69078 6440 ft 227 kts 59°
2026-04-30 21:36 52.18144 12.71412 6373 ft 227 kts 68°
2026-04-30 21:36 52.18727 12.73818 5994 ft 229 kts 68°
2026-04-30 21:37 52.20479 12.80967 5286 ft 227 kts 68°
2026-04-30 21:37 52.21050 12.83294 5108 ft 221 kts 68°
2026-04-30 21:37 52.21606 12.85571 4998 ft 213 kts 68°
2026-04-30 21:37 52.22143 12.87765 4899 ft 204 kts 68°
2026-04-30 21:38 52.22662 12.89879 4800 ft 198 kts 68°
2026-04-30 21:38 52.23169 12.91958 4698 ft 197 kts 68°
2026-04-30 21:38 52.23673 12.94026 4633 ft 196 kts 68°
2026-04-30 21:38 52.24176 12.96095 4531 ft 196 kts 68°
2026-04-30 21:39 52.24680 12.98162 4434 ft 196 kts 68°
2026-04-30 21:39 52.25175 13.00200 4358 ft 195 kts 68°
2026-04-30 21:39 52.25672 13.02252 4142 ft 194 kts 68°
2026-04-30 21:39 52.26165 13.04303 4025 ft 195 kts 68°
2026-04-30 21:40 52.26650 13.06358 4009 ft 195 kts 68°
2026-04-30 21:40 52.27145 13.08418 4009 ft 195 kts 68°
2026-04-30 21:40 52.27644 13.10480 4009 ft 195 kts 68°
2026-04-30 21:40 52.28144 13.12547 4010 ft 197 kts 68°
2026-04-30 21:41 52.28646 13.14627 4011 ft 198 kts 68°
2026-04-30 21:41 52.29151 13.16716 4011 ft 198 kts 68°
2026-04-30 21:41 52.29648 13.18777 3931 ft 197 kts 68°
2026-04-30 21:41 52.30137 13.20805 3741 ft 188 kts 68°
2026-04-30 21:42 52.30614 13.22786 3487 ft 186 kts 68°
2026-04-30 21:42 52.31087 13.24751 3231 ft 185 kts 68°
2026-04-30 21:42 52.31555 13.26700 2976 ft 184 kts 67°
2026-04-30 21:42 52.32022 13.28645 2732 ft 183 kts 67°
2026-04-30 21:43 52.32485 13.30574 2491 ft 182 kts 67°
2026-04-30 21:43 52.32945 13.32492 2237 ft 181 kts 67°
2026-04-30 21:43 52.33395 13.34371 2001 ft 180 kts 67°
2026-04-30 21:43 52.33850 13.36272 1752 ft 179 kts 66°
2026-04-30 21:44 52.34293 13.38123 1520 ft 168 kts 66°
2026-04-30 21:44 52.34702 13.39839 1295 ft 156 kts 66°
2026-04-30 21:44 52.35081 13.41426 1099 ft 145 kts 66°
2026-04-30 21:44 52.35443 13.42941 903 ft 142 kts 66°
2026-04-30 21:45 52.35801 13.44441 720 ft 141 kts 67°
2026-04-30 21:45 52.36158 13.45938 529 ft 141 kts 68°
2026-04-30 21:45 52.36510 13.47417 345 ft 141 kts 68°
2026-04-30 21:45 52.36865 13.48909 170 ft 140 kts 68°
2026-04-30 21:46 52.37176 13.50204 155 ft 81 kts 69°
2026-04-30 21:46 52.37312 13.50793 155 ft 33 kts 75°
2026-04-30 21:46 52.37288 13.51056 155 ft 11 kts 91°
2026-04-30 21:46 52.37285 13.51177 155 ft 10 kts 95°
2026-04-30 21:47 52.37280 13.51244 155 ft 3 kts 98°
2026-04-30 21:47 52.37277 13.51271 155 ft 2 kts 98°
2026-04-30 21:47 52.37261 13.51358 155 ft 16 kts 123°
2026-04-30 21:47 52.37189 13.51427 155 ft 11 kts 159°
2026-04-30 21:48 52.37122 13.51466 155 ft 10 kts 160°
2026-04-30 21:48 52.37061 13.51487 155 ft 8 kts 187°
2026-04-30 21:48 52.37031 13.51408 155 ft 10 kts 249°
2026-04-30 21:48 52.37008 13.51314 155 ft 8 kts 248°
2026-04-30 21:49 52.36988 13.51233 155 ft 7 kts 248°
2026-04-30 21:49 52.36972 13.51164 155 ft 6 kts 248°
2026-04-30 21:49 52.36949 13.51072 155 ft 12 kts 248°
2026-04-30 21:49 52.36910 13.50905 155 ft 19 kts 249°
2026-04-30 21:50 52.36860 13.50690 155 ft 21 kts 249°
2026-04-30 21:50 52.36805 13.50460 155 ft 21 kts 249°
2026-04-30 21:50 52.36759 13.50268 155 ft 14 kts 249°
2026-04-30 21:50 52.36708 13.50159 155 ft 12 kts 195°
2026-04-30 21:51 52.36639 13.50200 155 ft 10 kts 154°
2026-04-30 21:51 52.36578 13.50236 155 ft 9 kts 161°
2026-04-30 21:51 52.36525 13.50267 155 ft 7 kts 159°
2026-04-30 21:51 52.36459 13.50309 154 ft 11 kts 158°
2026-04-30 21:52 52.36394 13.50351 154 ft 12 kts 159°
2026-04-30 21:52 52.36300 13.50437 154 ft 12 kts 122°
2026-04-30 21:52 52.36283 13.50543 154 ft 9 kts 68°
2026-04-30 21:52 52.36303 13.50626 154 ft 5 kts 69°
2026-04-30 21:53 52.36308 13.50649 155 ft 0 kts 68°
2026-04-30 21:53 52.36309 13.50650 155 ft 0 kts 68°
2026-04-30 21:53 52.36311 13.50660 155 ft 2 kts 67°
2026-04-30 21:53 52.36314 13.50671 155 ft 1 kts 68°
2026-04-30 21:54 52.36314 13.50673 155 ft 0 kts 68°
2026-04-30 21:58 52.36346 13.50796 155 ft 16 kts 68°
2026-04-30 21:59 52.36385 13.50961 181 ft 16 kts 69°
2026-04-30 21:59 52.36422 13.51127 154 ft 16 kts 71°
2026-04-30 21:59 52.36455 13.51295 155 ft 16 kts 73°
2026-04-30 22:00 52.36503 13.51638 156 ft 15 kts 81°
2026-04-30 22:00 52.36512 13.51988 157 ft 16 kts 96°
2026-04-30 22:00 52.36490 13.52160 154 ft 16 kts 108°
2026-04-30 22:01 52.36441 13.52315 156 ft 10 kts 128°
2026-04-30 22:01 52.36321 13.50636 155 ft 0 kts 69°